H1 CPF 2 NER 2024 8 25 9 238 01 glonass127 H2 1106403 9127 37869 2024 8 25 0 0 0 2024 8 28 23 45 0 900 1 1 0 0 0 1 H9 10 0 60547 0.00000 0 772631.061 16252346.223 -19604281.807 10 0 60547 900.00000 0 -291067.773 18309652.904 -17721719.353 10 0 60547 1800.00000 0 -1090166.249 20211032.801 -15493933.934 10 0 60547 2700.00000 0 -1637140.046 21893912.112 -12964546.245 10 0 60547 3600.00000 0 -1956159.191 23301513.945 -10182989.435 10 0 60547 4500.00000 0 -2081797.746 24385159.525 -7203525.905 10 0 60547 5400.00000 0 -2057305.281 25106242.023 -4084175.060 10 0 60547 6300.00000 0 -1932516.104 25437791.685 -885574.234 10 0 60547 7200.00000 0 -1761487.009 25365568.678 2330204.057 10 0 60547 8100.00000 0 -1599964.933 24888640.207 5500854.997 10 0 60547 9000.00000 0 -1502792.269 24019420.297 8565041.182 10 0 60547 9900.00000 0 -1521359.290 22783172.982 11463566.370 10 0 60547 10800.00000 0 -1701210.366 21217001.724 14140501.665 10 0 60547 11700.00000 0 -2079903.494 19368368.738 16544243.934 10 0 60547 12600.00000 0 -2685211.615 17293206.660 18628487.975 10 0 60547 13500.00000 0 -3533739.726 15053701.057 20353095.878 10 0 60547 14400.00000 0 -4630014.495 12715834.996 21684849.167 10 0 60547 15300.00000 0 -5966083.852 10346795.951 22598071.339 10 0 60547 16200.00000 0 -7521643.329 8012350.315 23075110.713 10 0 60547 17100.00000 0 -9264684.836 5774291.764 23106675.622 10 0 60547 18000.00000 0 -11152642.560 3688066.572 22692016.220 10 0 60547 18900.00000 0 -13133990.769 1800671.877 21838949.379 10 0 60547 19800.00000 0 -15150229.994 148912.076 20563725.454 10 0 60547 20700.00000 0 -17138182.121 -1241915.509 18890737.999 10 0 60547 21600.00000 0 -19032501.941 -2358851.623 16852080.016 10 0 60547 22500.00000 0 -20768303.213 -3201587.873 14486952.807 10 0 60547 23400.00000 0 -22283791.657 -3782247.362 11840936.240 10 0 60547 24300.00000 0 -23522795.986 -4124640.979 8965131.924 10 0 60547 25200.00000 0 -24437091.162 -4263028.894 5915193.555 10 0 60547 26100.00000 0 -24988415.542 -4240437.781 2750261.421 10 0 60547 27000.00000 0 -25150095.431 -4106603.412 -468179.445 10 0 60547 27900.00000 0 -24908206.222 -3915624.819 -3677495.743 10 0 60547 28800.00000 0 -24262218.320 -3723429.280 -6815133.388 10 0 60547 29700.00000 0 -23225097.661 -3585156.366 -9819851.095 10 0 60547 30600.00000 0 -21822853.804 -3552573.571 -12632934.436 10 0 60547 31500.00000 0 -20093552.428 -3671635.457 -15199364.640 10 0 60547 32400.00000 0 -18085832.293 -3980292.596 -17468917.100 10 0 60547 33300.00000 0 -15856988.422 -4506646.220 -19397165.906 10 0 60547 34200.00000 0 -13470702.281 -5267529.705 -20946372.665 10 0 60547 35100.00000 0 -10994515.175 -6267579.540 -22086240.512 10 0 60547 36000.00000 0 -8497152.239 -7498837.193 -22794517.257 10 0 60547 36900.00000 0 -6045810.869 -8940900.101 -23057435.061 10 0 60547 37800.00000 0 -3703528.713 -10561616.059 -22869977.742 10 0 60547 38700.00000 0 -1526742.601 -12318291.720 -22235970.736 10 0 60547 39600.00000 0 436858.779 -14159363.588 -21167992.583 10 0 60547 40500.00000 0 2150098.778 -16026460.016 -19687110.773 10 0 60547 41400.00000 0 3587620.480 -17856766.057 -17822448.484 10 0 60547 42300.00000 0 4736685.288 -19585590.236 -15610592.300 10 0 60547 43200.00000 0 5597431.685 -21149024.059 -13094854.259 10 0 60547 44100.00000 0 6182586.585 -22486581.596 -10324404.393 10 0 60547 45000.00000 0 6516645.091 -23543707.818 -7353292.523 10 0 60547 45900.00000 0 6634556.900 -24274050.587 -4239379.913 10 0 60547 46800.00000 0 6579978.182 -24641401.772 -1043202.976 10 0 60547 47700.00000 0 6403165.641 -24621227.488 2173207.860 10 0 60547 48600.00000 0 6158603.836 -24201725.200 5347530.614 10 0 60547 49500.00000 0 5902467.302 -23384365.594 8418352.181 10 0 60547 50400.00000 0 5690025.037 -22183898.743 11326343.931 10 0 60547 51300.00000 0 5573096.426 -20627826.318 14015390.755 10 0 60547 52200.00000 0 5597664.753 -18755363.434 16433653.332 10 0 60547 53100.00000 0 5801747.192 -16615934.288 18534544.963 10 0 60547 54000.00000 0 6213609.070 -14267264.335 20277606.397 10 0 60547 54900.00000 0 6850395.745 -11773147.519 21629264.050 10 0 60547 55800.00000 0 7717238.204 -9200979.761 22563459.197 10 0 60547 56700.00000 0 8806869.238 -6619158.739 23062137.874 10 0 60547 57600.00000 0 10099766.498 -4094455.077 23115593.490 10 0 60547 58500.00000 0 11564817.507 -1689460.979 22722656.233 10 0 60547 59400.00000 0 13160480.862 539780.754 21890725.714 10 0 60547 60300.00000 0 14836397.742 2545871.459 20635645.446 10 0 60547 61200.00000 0 16535389.537 4291789.973 18981420.167 10 0 60547 62100.00000 0 18195761.341 5752193.677 16959779.443 10 0 60547 63000.00000 0 19753818.094 6914233.364 14609593.521 10 0 60547 63900.00000 0 21146490.489 7777847.399 11976150.067 10 0 60547 64800.00000 0 22313962.385 8355521.813 9110303.211 10 0 60547 65700.00000 0 23202190.170 8671524.846 6067508.973 10 0 60547 66600.00000 0 23765207.895 8760646.473 2906763.981 10 0 60547 67500.00000 0 23967119.829 8666494.510 -310533.181 10 0 60547 68400.00000 0 23783694.311 8439418.111 -3521776.332 10 0 60547 69300.00000 0 23203488.868 8134146.031 -6664378.262 10 0 60547 70200.00000 0 22228455.991 7807239.933 -9677004.603 10 0 60547 71100.00000 0 20874000.914 7514471.779 -12500789.455 10 0 60547 72000.00000 0 19168486.155 7308238.328 -15080506.974 10 0 60547 72900.00000 0 17152201.568 7235124.780 -17365673.883 10 0 60547 73800.00000 0 14875841.827 7333723.597 -19311559.112 10 0 60547 74700.00000 0 12398554.876 7632803.714 -20880078.735 10 0 60547 75600.00000 0 9785643.574 8149910.279 -22040556.942 10 0 60547 76500.00000 0 7106017.871 8890456.326 -22770336.856 10 0 60547 77400.00000 0 4429505.639 9847346.305 -23055228.381 10 0 60547 78300.00000 0 1824136.247 11001148.188 -22889784.034 10 0 60547 79200.00000 0 -646488.188 12320806.965 -22277397.572 10 0 60547 80100.00000 0 -2925623.002 13764868.792 -21230224.135 10 0 60547 81000.00000 0 -4965510.792 15283163.059 -19768924.543 10 0 60547 81900.00000 0 -6729122.360 16818869.948 -17922240.109 10 0 60547 82800.00000 0 -8191437.347 18310884.732 -15726407.892 10 0 60547 83700.00000 0 -9340213.224 19696377.613 -13224429.585 10 0 60547 84600.00000 0 -10176213.420 20913440.053 -10465210.061 10 0 60547 85500.00000 0 -10712888.491 21903705.272 -7502584.176 10 0 60548 0.00000 0 -10975527.488 22614832.351 -4394252.707 10 0 60548 900.00000 0 -10999919.011 23002750.077 -1200647.754 10 0 60548 1800.00000 0 -10830581.403 23033566.298 2016245.044 10 0 60548 2700.00000 0 -10518639.894 22685065.292 5194089.580 10 0 60548 3600.00000 0 -10119441.715 21947731.148 8271400.113 10 0 60548 4500.00000 0 -9690010.983 20825256.680 11188718.627 10 0 60548 5400.00000 0 -9286450.701 19334518.382 13889746.719 10 0 60548 6300.00000 0 -8961400.586 17505020.026 16322411.626 10 0 60548 7200.00000 0 -8761656.328 15377829.130 18439847.711 10 0 60548 8100.00000 0 -8726048.574 13004050.846 20201276.680 10 0 60548 9000.00000 0 -8883668.800 10442902.205 21572771.856 10 0 60548 9900.00000 0 -9252514.763 7759465.309 22527893.952 10 0 60548 10800.00000 0 -9838611.054 5022210.580 23048188.002 10 0 60548 11700.00000 0 -10635641.060 2300390.012 23123533.312 10 0 60548 12600.00000 0 -11625106.028 -338594.538 22752340.447 10 0 60548 13500.00000 0 -12777005.822 -2831742.039 21941591.550 10 0 60548 14400.00000 0 -14051014.923 -5122819.062 20706722.518 10 0 60548 15300.00000 0 -15398107.136 -7164446.701 19071347.921 10 0 60548 16200.00000 0 -16762564.029 -8919822.560 17066831.980 10 0 60548 17100.00000 0 -18084286.043 -10364006.932 14731711.436 10 0 60548 18000.00000 0 -19301312.076 -11484719.467 12110978.862 10 0 60548 18900.00000 0 -20352443.929 -12282612.240 9255237.637 10 0 60548 19800.00000 0 -21179866.511 -12771006.445 6219742.571 10 0 60548 20700.00000 0 -21731653.748 -12975102.080 3063342.932 10 0 60548 21600.00000 0 -21964053.757 -12930692.226 -152652.903 10 0 60548 22500.00000 0 -21843455.071 -12682434.698 -3365669.620 10 0 60548 23400.00000 0 -21347948.312 -12281753.199 -6513090.523 10 0 60548 24300.00000 0 -20468414.226 -11784456.541 -9533491.653 10 0 60548 25200.00000 0 -19209088.832 -11248177.321 -12367858.895 10 0 60548 26100.00000 0 -17587578.661 -10729739.922 -14960762.299 10 0 60548 27000.00000 0 -15634322.714 -10282571.343 -17261462.505 10 0 60548 27900.00000 0 -13391521.763 -9954266.991 -19224925.400 10 0 60548 28800.00000 0 -10911578.820 -9784417.170 -20812723.082 10 0 60548 29700.00000 0 -8255115.936 -9802788.768 -21993801.723 10 0 60548 30600.00000 0 -5488650.898 -10027941.260 -22745100.011 10 0 60548 31500.00000 0 -2682032.168 -10466337.135 -23052005.171 10 0 60548 32400.00000 0 94259.271 -11111985.253 -22908637.363 10 0 60548 33300.00000 0 2771827.005 -11946632.325 -22317957.053 10 0 60548 34200.00000 0 5286980.499 -12940493.889 -21291693.897 10 0 60548 35100.00000 0 7583150.469 -14053492.716 -19850099.584 10 0 60548 36000.00000 0 9612997.498 -15236950.782 -18021530.803 10 0 60548 36900.00000 0 11340126.559 -16435661.518 -15841872.103 10 0 60548 37800.00000 0 12740337.503 -17590253.034 -13353811.663 10 0 60548 38700.00000 0 13802361.659 -18639740.924 -10605985.884 10 0 60548 39600.00000 0 14528056.837 -19524161.681 -7652011.283 10 0 60548 40500.00000 0 14932056.133 -20187174.889 -4549424.165 10 0 60548 41400.00000 0 15040889.011 -20578524.378 -1358550.073 10 0 60548 42300.00000 0 14891615.192 -20656255.119 1858673.921 10 0 60548 43200.00000 0 14530031.974 -20388593.624 5039900.615 10 0 60548 44100.00000 0 14008532.882 -19755414.268 8123574.356 10 0 60548 45000.00000 0 13383709.444 -18749231.696 11050110.125 10 0 60548 45900.00000 0 12713797.669 -17375679.498 13763028.174 10 0 60548 46800.00000 0 12056076.430 -15653456.632 16210023.818 10 0 60548 47700.00000 0 11464326.084 -13613744.932 18343953.540 10 0 60548 48600.00000 0 10986452.375 -11299122.435 20123720.609 10 0 60548 49500.00000 0 10662373.366 -8762017.389 21515045.414 10 0 60548 50400.00000 0 10522255.924 -6062766.057 22491107.850 10 0 60548 51300.00000 0 10585173.875 -3267352.962 23033051.309 10 0 60548 52200.00000 0 10858242.757 -444924.657 23130340.012 10 0 60548 53100.00000 0 11336266.939 2334822.968 22780963.620 10 0 60548 54000.00000 0 12001914.220 5004278.802 21991485.278 10 0 60548 54900.00000 0 12826411.921 7500465.995 20776931.544 10 0 60548 55800.00000 0 13770737.318 9767403.681 19160524.938 10 0 60548 56700.00000 0 14787255.166 11758184.955 17173262.330 10 0 60548 57600.00000 0 15821736.476 13436685.879 14853344.868 10 0 60548 58500.00000 0 16815676.560 14778834.655 12245467.852 10 0 60548 59400.00000 0 17708817.287 15773387.499 9399981.660 10 0 60548 60300.00000 0 18441769.007 16422177.567 6371937.582 10 0 60548 61200.00000 0 18958622.400 16739824.873 3220035.160 10 0 60548 62100.00000 0 19209439.724 16752917.556 5490.190 10 0 60548 63000.00000 0 19152518.894 16498697.295 -3209155.223 10 0 60548 63900.00000 0 18756332.472 16023303.016 -6361257.149 10 0 60548 64800.00000 0 18001056.651 15379646.394 -9389304.132 10 0 60548 65700.00000 0 16879622.255 14625009.050 -12234135.732 10 0 60548 66600.00000 0 15398239.954 13818463.949 -14840119.540 10 0 60548 67500.00000 0 13576374.381 13018231.693 -17156261.507 10 0 60548 68400.00000 0 11446165.624 12279085.690 -19137225.647 10 0 60548 69300.00000 0 9051320.594 11649918.371 -20744241.049 10 0 60548 70200.00000 0 6445519.860 11171573.846 -21945876.677 10 0 60548 71100.00000 0 3690406.595 10875040.732 -22718667.446 10 0 60548 72000.00000 0 853242.486 10780083.248 -23047578.420 10 0 60548 72900.00000 0 -1995670.262 10894369.340 -22926297.738 10 0 60548 73800.00000 0 -4785691.738 11213132.924 -22357352.674 10 0 60548 74700.00000 0 -7448557.737 11719383.956 -21352047.204 10 0 60548 75600.00000 0 -9920989.499 12384656.233 -19930223.348 10 0 60548 76500.00000 0 -12147090.380 13170259.605 -18119852.265 10 0 60548 77400.00000 0 -14080429.615 14028981.614 -15956464.727 10 0 60548 78300.00000 0 -15685727.215 14907164.481 -13482433.812 10 0 60548 79200.00000 0 -16940071.455 15747067.638 -10746125.583 10 0 60548 80100.00000 0 -17833620.626 16489414.216 -7800936.132 10 0 60548 81000.00000 0 -18369762.860 17076012.686 -4704235.323 10 0 60548 81900.00000 0 -18564730.888 17452342.283 -1516239.194 10 0 60548 82800.00000 0 -18446691.440 17569993.088 1701165.977 10 0 60548 83700.00000 0 -18054350.939 17388858.480 4885624.466 10 0 60548 84600.00000 0 -17435138.873 16878988.762 7975513.360 10 0 60548 85500.00000 0 -16643047.311 16022029.441 10911123.320 10 0 60549 0.00000 0 -15736218.662 14812185.543 13635795.724 10 0 60549 900.00000 0 -14774382.756 13256672.334 16096997.108 10 0 60549 1800.00000 0 -13816251.437 11375636.471 18247308.368 10 0 60549 2700.00000 0 -12916976.971 9201549.355 20045316.712 10 0 60549 3600.00000 0 -12125780.003 6778099.364 21456391.737 10 0 60549 4500.00000 0 -11483843.759 4158627.610 22453334.358 10 0 60549 5400.00000 0 -11022560.530 1404170.507 23016887.802 10 0 60549 6300.00000 0 -10762201.964 -1418812.050 23136102.274 10 0 60549 7200.00000 0 -10711067.573 -4240931.701 22808547.137 10 0 60549 8100.00000 0 -10865146.634 -6992489.688 22040366.665 10 0 60549 9000.00000 0 -11208308.085 -9606112.751 20846177.686 10 0 60549 9900.00000 0 -11713011.743 -12019300.472 19248809.758 10 0 60549 10800.00000 0 -12341513.021 -14176780.743 17278890.970 10 0 60549 11700.00000 0 -13047513.086 -16032577.063 14974284.957 10 0 60549 12600.00000 0 -13778187.705 -17551702.323 12379387.384 10 0 60549 13500.00000 0 -14476511.908 -18711408.222 9544292.893 10 0 60549 14400.00000 0 -15083784.435 -19501937.162 6523846.214 10 0 60549 15300.00000 0 -15542246.645 -19926743.491 3376593.908 10 0 60549 16200.00000 0 -15797685.479 -20002172.923 163655.784 10 0 60549 17100.00000 0 -15801909.607 -19756611.641 -3052462.751 10 0 60549 18000.00000 0 -15514992.183 -19229139.215 -6209094.051 10 0 60549 18900.00000 0 -14907182.708 -18467741.005 -9244642.650 10 0 60549 19800.00000 0 -13960403.860 -17527155.028 -12099805.170 10 0 60549 20700.00000 0 -12669266.560 -16466444.576 -14718749.965 10 0 60549 21600.00000 0 -11041556.967 -15346400.268 -17050231.252 10 0 60549 22500.00000 0 -9098171.831 -14226883.002 -19048613.758 10 0 60549 23400.00000 0 -6872502.511 -13164222.255 -20674785.679 10 0 60549 24300.00000 0 -4409291.977 -12208781.884 -21896940.324 10 0 60549 25200.00000 0 -1763011.993 -11402798.339 -22691209.775 10 0 60549 26100.00000 0 1004171.402 -10778584.297 -23042137.239 10 0 60549 27000.00000 0 3824758.272 -10357174.605 -22942978.517 10 0 60549 27900.00000 0 6628501.164 -10147472.027 -22395826.818 10 0 60549 28800.00000 0 9345108.115 -10145928.393 -21411559.074 10 0 60549 29700.00000 0 11906948.172 -10336773.377 -20009605.846 10 0 60549 30600.00000 0 14251645.673 -10692779.415 -18217550.604 10 0 60549 31500.00000 0 16324454.621 -11176528.149 -16070567.844 10 0 60549 32400.00000 0 18080314.483 -11742122.390 -13610712.719 10 0 60549 33300.00000 0 19485502.719 -12337268.720 -10886077.841 10 0 60549 34200.00000 0 20518816.963 -12905640.477 -7949835.478 10 0 60549 35100.00000 0 21172240.052 -13389419.371 -4859185.448 10 0 60549 36000.00000 0 21451063.248 -13731907.108 -1674230.548 10 0 60549 36900.00000 0 21373465.857 -13880096.105 1543197.478 10 0 60549 37800.00000 0 20969572.270 -13787090.867 4730738.027 10 0 60549 38700.00000 0 20280029.025 -13414278.634 7826704.320 10 0 60549 39600.00000 0 19354164.015 -12733159.040 10771265.738 10 0 60549 40500.00000 0 18247806.791 -11726757.295 13507587.844 10 0 60549 41400.00000 0 17020862.059 -10390563.050 15982909.503 10 0 60549 42300.00000 0 15734737.942 -8732956.884 18149538.098 10 0 60549 43200.00000 0 14449735.638 -6775107.408 19965745.817 10 0 60549 44100.00000 0 13222507.962 -4550343.414 21396551.993 10 0 60549 45000.00000 0 12103690.865 -2103026.667 22414378.616 10 0 60549 45900.00000 0 11135804.495 513029.246 22999568.351 10 0 60549 46800.00000 0 10351509.261 3236530.541 23140756.575 10 0 60549 47700.00000 0 9772287.899 6000986.346 22835091.176 10 0 60549 48600.00000 0 9407607.446 8737211.854 22088296.033 10 0 60549 49500.00000 0 9254595.763 11375951.111 20914576.430 10 0 60549 50400.00000 0 9298246.661 13850513.787 19336366.902 10 0 60549 51300.00000 0 9512146.303 16099319.212 17383924.498 10 0 60549 52200.00000 0 9859692.332 18068243.926 15094772.912 10 0 60549 53100.00000 0 10295756.822 19712676.130 12513005.624 10 0 60549 54000.00000 0 10768725.368 20999191.537 9688458.888 10 0 60549 54900.00000 0 11222828.498 21906779.893 6675768.148 10 0 60549 55800.00000 0 11600668.445 22427569.317 3533324.231 10 0 60549 56700.00000 0 11845835.176 22567016.134 322148.207 10 0 60549 57600.00000 0 11905500.692 22343550.014 -2895293.884 10 0 60549 58500.00000 0 11732880.457 21787687.298 -6056313.201 10 0 60549 59400.00000 0 11289455.523 20940648.159 -9099232.568 10 0 60549 60300.00000 0 10546858.310 19852534.882 -11964607.702 10 0 60549 61200.00000 0 9488338.858 18580147.836 -14596409.430 10 0 60549 62100.00000 0 8109746.052 17184531.848 -16943141.644 10 0 60549 63000.00000 0 6419979.051 15728357.747 -18958870.890 10 0 60549 63900.00000 0 4440887.068 14273251.376 -20604145.321 10 0 60549 64800.00000 0 2206619.579 12877184.807 -21846783.223 10 0 60549 65700.00000 0 -237547.053 11592041.829 -22662514.276 10 0 60549 66600.00000 0 -2836857.734 10461462.133 -23035460.069 10 0 60549 67500.00000 0 -5529132.258 9519056.292 -22958444.095 10 0 60549 68400.00000 0 -8247137.551 8787067.269 -22433125.268 10 0 60549 69300.00000 0 -10921178.103 8275534.589 -21469952.949 10 0 60549 70200.00000 0 -13481795.024 7981995.271 -20087945.375 10 0 60549 71100.00000 0 -15862459.863 7891732.291 -18314297.133 10 0 60549 72000.00000 0 -18002149.883 7978557.674 -16183824.934 10 0 60549 72900.00000 0 -19847697.122 8206094.359 -13738264.243 10 0 60549 73800.00000 0 -21355813.632 8529499.816 -11025432.254 10 0 60549 74700.00000 0 -22494709.590 8897555.801 -8098275.313 10 0 60549 75600.00000 0 -23245238.616 9255033.550 -5013821.004 10 0 60549 76500.00000 0 -23601525.045 9545232.529 -1832056.631 10 0 60549 77400.00000 0 -23571049.908 9712584.309 1385242.915 10 0 60549 78300.00000 0 -23174195.208 9705211.060 4575714.516 10 0 60549 79200.00000 0 -22443268.634 9477330.936 7677609.965 10 0 60549 80100.00000 0 -21421052.243 8991409.725 10630979.847 10 0 60549 81000.00000 0 -20158937.886 8219969.435 13378816.183 10 0 60549 81900.00000 0 -18714728.629 7146979.190 15868133.143 10 0 60549 82800.00000 0 -17150198.440 5768771.475 18050966.734 10 0 60549 83700.00000 0 -15528511.510 4094446.361 19885276.340 10 0 60549 84600.00000 0 -13911607.550 2145747.344 21335733.009 10 0 60549 85500.00000 0 -12357660.166 -43586.295 22374381.475 10 0 60550 0.00000 0 -10918711.972 -2428964.428 22981165.113 10 0 60550 900.00000 0 -9638581.839 -4956543.929 23144305.510 10 0 60550 1800.00000 0 -8551131.123 -7565212.363 22860529.506 10 0 60550 2700.00000 0 -7678956.851 -10188882.535 22135140.685 10 0 60550 3600.00000 0 -7032567.248 -12759002.914 20981932.457 10 0 60550 4500.00000 0 -6610073.015 -15207184.260 19422943.585 10 0 60550 5400.00000 0 -6397407.949 -17467836.132 17488058.912 10 0 60550 6300.00000 0 -6369070.956 -19480706.034 15214460.632 10 0 60550 7200.00000 0 -6489360.163 -21193216.928 12645938.107 10 0 60550 8100.00000 0 -6714049.302 -22562506.235 9832066.950 10 0 60550 9000.00000 0 -6992437.799 -23557080.687 6827270.796 10 0 60550 9900.00000 0 -7269689.722 -24158016.477 3689781.988 10 0 60550 10800.00000 0 -7489363.752 -24359652.433 480519.945 10 0 60550 11700.00000 0 -7596027.279 -24169744.753 -2738091.694 10 0 60550 12600.00000 0 -7537843.130 -23609074.383 -5903346.032 10 0 60550 13500.00000 0 -7269017.590 -22710521.389 -8953487.371 10 0 60550 14400.00000 0 -6752003.443 -21517643.698 -11828933.725 10 0 60550 15300.00000 0 -5959361.594 -20082819.185 -14473461.545 10 0 60550 16200.00000 0 -4875199.034 -18465029.343 -16835327.393 10 0 60550 17100.00000 0 -3496118.956 -16727378.636 -18868302.394 10 0 60550 18000.00000 0 -1831639.783 -14934455.440 -20532597.061 10 0 60550 18900.00000 0 95937.047 -13149647.512 -21795656.613 10 0 60550 19800.00000 0 2252206.811 -11432526.978 -22632809.773 10 0 60550 20700.00000 0 4591861.078 -9836416.715 -23027757.415 10 0 60550 21600.00000 0 7060356.986 -8406241.915 -22972891.073 10 0 60550 22500.00000 0 9595985.691 -7176757.957 -22469435.202 10 0 60550 23400.00000 0 12132252.349 -6171229.125 -21527410.954 10 0 60550 24300.00000 0 14600466.706 -5400612.856 -20165423.184 10 0 60550 25200.00000 0 16932434.669 -4863282.154 -18410276.117 10 0 60550 26100.00000 0 19063137.180 -4545295.460 -16296426.806 10 0 60550 27000.00000 0 20933283.774 -4421199.674 -13865288.747 10 0 60550 27900.00000 0 22491634.008 -4455329.277 -11164401.024 10 0 60550 28800.00000 0 23696990.346 -4603543.512 -8246480.986 10 0 60550 29700.00000 0 24519780.512 -4815325.325 -5168380.554 10 0 60550 30600.00000 0 24943165.168 -5036150.906 -1989967.861 10 0 60550 31500.00000 0 24963627.082 -5210027.890 1227042.869 10 0 60550 32400.00000 0 24591020.000 -5282093.901 4420289.829 10 0 60550 33300.00000 0 23848078.068 -5201165.436 7527967.051 10 0 60550 34200.00000 0 22769409.005 -4922129.928 10490009.731 10 0 60550 35100.00000 0 21400015.348 -4408081.160 13249239.384 10 0 60550 36000.00000 0 19793407.061 -3632109.497 15752448.065 10 0 60550 36900.00000 0 18009385.035 -2578673.135 17951402.506 10 0 60550 37800.00000 0 16111587.705 -1244494.130 19803750.900 10 0 60550 38700.00000 0 14164901.994 361057.473 21273817.134 10 0 60550 39600.00000 0 12232844.609 2216107.264 22333269.333 10 0 60550 40500.00000 0 10375020.364 4286942.445 22961651.852 10 0 60550 41400.00000 0 8644760.671 6529173.838 23146772.014 10 0 60550 42300.00000 0 7087037.928 8889347.804 22884935.087 10 0 60550 43200.00000 0 5736740.338 11306943.880 22181023.254 10 0 60550 44100.00000 0 4617377.353 13716678.434 21048416.559 10 0 60550 45000.00000 0 3740268.770 16051021.924 19508756.142 10 0 60550 45900.00000 0 3104251.232 18242828.296 17591552.468 10 0 60550 46800.00000 0 2695915.057 20227969.786 15333643.798 10 0 60550 47700.00000 0 2490362.815 21947869.201 12778512.726 10 0 60550 48600.00000 0 2452459.518 23351825.006 9975471.406 10 0 60550 49500.00000 0 2538523.754 24399031.987 6978728.716 10 0 60550 50400.00000 0 2698390.145 25060211.853 3846355.495 10 0 60550 51300.00000 0 2877757.322 25318783.575 639166.469 10 0 60550 52200.00000 0 3020722.648 25171521.922 -2580460.125 10 0 60550 53100.00000 0 3072396.031 24628673.824 -5749802.200 10 0 60550 54000.00000 0 2981480.869 23713525.102 -8807028.209 10 0 60550 54900.00000 0 2702710.619 22461433.586 -11692420.847 10 0 60550 55800.00000 0 2199034.983 20918367.805 -14349564.260 10 0 60550 56700.00000 0 1443459.869 19139011.995 -16726469.408 10 0 60550 57600.00000 0 420459.911 17184517.297 -18776613.380 10 0 60550 58500.00000 0 -873099.380 15119994.621 -20459870.130 10 0 60550 59400.00000 0 -2427571.533 13011856.058 -21743312.603 10 0 60550 60300.00000 0 -4220689.688 10925118.363 -22601869.096 10 0 60550 61200.00000 0 -6218272.399 8920783.605 -23018820.025 10 0 60550 62100.00000 0 -8375445.543 7053408.579 -22986124.951 10 0 60550 63000.00000 0 -10638328.832 5368965.995 -22504573.548 10 0 60550 63900.00000 0 -12946115.326 3903087.597 -21583758.090 10 0 60550 64800.00000 0 -15233455.570 2679762.416 -20241869.014 10 0 60550 65700.00000 0 -17433045.080 1710543.409 -18505318.802 10 0 60550 66600.00000 0 -19478305.456 994293.621 -16408203.146 10 0 60550 67500.00000 0 -21306045.852 517479.671 -13991611.604 10 0 60550 68400.00000 0 -22858992.815 254996.891 -11302802.990 10 0 60550 69300.00000 0 -24088082.640 171487.849 -8394263.366 10 0 60550 70200.00000 0 -24954421.008 223095.295 -5322666.620 10 0 60550 71100.00000 0 -25430829.280 359572.499 -2147759.297 10 0 60550 72000.00000 0 -25502914.709 526659.452 1068807.510 10 0 60550 72900.00000 0 -25169622.149 668622.885 4264675.797 10 0 60550 73800.00000 0 -24443246.815 730851.971 7377984.376 10 0 60550 74700.00000 0 -23348910.097 662400.098 10348555.603 10 0 60550 75600.00000 0 -21923522.569 418366.160 13119043.014 10 0 60550 76500.00000 0 -20214279.198 -37983.771 15636019.007 10 0 60550 77400.00000 0 -18276750.465 -733442.164 17850983.349 10 0 60550 78300.00000 0 -16172649.075 -1683506.201 19721275.123 10 0 60550 79200.00000 0 -13967364.431 -2891499.957 21210872.839 10 0 60550 80100.00000 0 -11727365.881 -4348208.658 22291069.449 10 0 60550 81000.00000 0 -9517580.441 -6032040.326 22941011.304 10 0 60550 81900.00000 0 -7398851.313 -7909708.978 23148092.229 10 0 60550 82800.00000 0 -5425580.013 -9937412.597 22908196.111 10 0 60550 83700.00000 0 -3643647.510 -12062459.270 22225783.630 10 0 60550 84600.00000 0 -2088698.596 -14225276.868 21113821.017 10 0 60550 85500.00000 0 -784859.447 -16361725.880 19593550.997 99